Nouasseur, Morocco

1:24 AM WET on December 12, 2017 (GMT +0000)
Nouasseur

Weather History for GMMN - October, 2013

Change the Weather History Date:

Monday, October 7, 2013

  Actual Average Record
Temperature  
Mean Temperature 68 °F -  
Max Temperature 80 °F 74 °F 88 °F (2012)
Min Temperature 55 °F 55 °F 46 °F (1996)
Cooling Degree Days 2    
Growing Degree Days 18 (Base 50)    
Moisture  
Dew Point 58 °F    
Average Humidity 72    
Maximum Humidity 88    
Minimum Humidity 38    
Precipitation  
Precipitation 0.00 in - - ()
Sea Level Pressure  
Sea Level Pressure 30.06 in    
Wind  
Wind Speed 3 mph ()    
Max Wind Speed 13 mph    
Max Gust Speed -    
Visibility 6.1 miles    
Events      
Averages and records for this station are not official NWS values.
T = Trace of Precipitation, MM = Missing Value Source: Averaged Metar Reports

Daily Weather History Graph

Daily Weather History Graph

Search for Another Location

Airport or City:

Trip Planner

Search our weather history database for the weather conditions in past years. The results will help you decide how hot, cold, wet, or windy it might be!

Date:

Astronomy

Oct. 07, 2013 Rise Set
Actual Time 7:28 AM WEST 7:06 PM WEST
Civil Twilight 7:04 AM WEST 7:31 PM WEST
Nautical Twilight 6:35 AM WEST 8:00 PM WEST
Astronomical Twilight 6:06 AM WEST 8:29 PM WEST
Moon 9:55 AM WEST (10/7) 8:50 PM WEST (10/7)
Length of Visible Light 12h 27m
Length of Day
11h 37m
Waxing Crescent, 7% of the Moon is Illuminated
Oct 7
Waxing Crescent
Oct 12
First Quarter
Oct 19
Full
Oct 27
Last Quarter
Nov 3
New

Hourly Weather History & Observations

Time (WEST) Temp. Heat Index Dew Point Humidity Pressure Visibility Wind Dir Wind Speed Gust Speed Precip Events Conditions
12:00 AM 66.2 °F - 60.8 °F 83% 30.09 in 6.2 mi NE 3.5 mph - N/A   Scattered Clouds
12:30 AM 64.4 °F - 59.0 °F 83% 30.09 in 6.2 mi ENE 2.3 mph - N/A   Scattered Clouds
1:00 AM 63 °F - 58 °F 78% 30.09 in 6 mi East 2.3 mph - -   Partly Cloudy
1:00 AM 62.6 °F - 57.2 °F 82% 30.09 in 6.2 mi Variable 2.3 mph - N/A   Scattered Clouds
1:30 AM 60.8 °F - 55.4 °F 82% 30.09 in 6.2 mi ESE 2.3 mph - N/A   Scattered Clouds
2:00 AM 60.8 °F - 57.2 °F 88% 30.09 in 6.2 mi ESE 2.3 mph - N/A   Scattered Clouds
2:30 AM 60.8 °F - 57.2 °F 88% 30.06 in 6.2 mi East 1.2 mph - N/A   Scattered Clouds
3:00 AM 60.8 °F - 57.2 °F 88% 30.06 in 6.2 mi ESE 2.3 mph - N/A   Scattered Clouds
3:30 AM 60.8 °F - 55.4 °F 82% 30.06 in 6.2 mi Calm Calm - N/A   Scattered Clouds
4:00 AM 59 °F - 55 °F 82% 30.08 in 6 mi Calm Calm - -   Mostly Cloudy
4:00 AM 59.0 °F - 55.4 °F 88% 30.06 in 6.2 mi Calm Calm - N/A   Scattered Clouds
4:30 AM 57.2 °F - 53.6 °F 88% 30.06 in 6.2 mi Calm Calm - N/A   Scattered Clouds
5:00 AM 57.2 °F - 53.6 °F 88% 30.06 in 6.2 mi Calm Calm - N/A   Scattered Clouds
5:30 AM 57.2 °F - 53.6 °F 88% 30.06 in 6.2 mi Calm Calm - N/A   Scattered Clouds
6:00 AM 57.2 °F - 53.6 °F 88% 30.06 in 6.2 mi SE 2.3 mph - N/A   Scattered Clouds
6:30 AM 57.2 °F - 53.6 °F 88% 30.06 in 6.2 mi SE 2.3 mph - N/A   Scattered Clouds
7:00 AM 57 °F - 53 °F 84% 30.08 in 6 mi SSE 3.5 mph - -   Mostly Cloudy
7:00 AM 57.2 °F - 53.6 °F 88% 30.06 in 6.2 mi SSE 3.5 mph - N/A   Scattered Clouds
7:30 AM 55.4 °F - 51.8 °F 88% 30.06 in 6.2 mi South 3.5 mph - N/A   Scattered Clouds
8:00 AM 55.4 °F - 51.8 °F 88% 30.06 in 6.2 mi South 4.6 mph - N/A   Scattered Clouds
8:30 AM 59.0 °F - 55.4 °F 88% 30.09 in 3.7 mi South 3.5 mph - N/A   Scattered Clouds
9:00 AM 62.6 °F - 57.2 °F 82% 30.09 in 4.3 mi South 1.2 mph - N/A   Scattered Clouds
9:30 AM 66.2 °F - 60.8 °F 83% 30.09 in 5.6 mi South 2.3 mph - N/A   Scattered Clouds
10:00 AM 70 °F - 63 °F 73% 30.09 in 6 mi Calm Calm - -   Mostly Cloudy
10:00 AM 69.8 °F - 62.6 °F 78% 30.09 in 6.2 mi Calm Calm - N/A   Scattered Clouds
10:30 AM 69.8 °F - 62.6 °F 78% 30.09 in 6.2 mi Variable 1.2 mph - N/A   Mostly Cloudy
11:00 AM 73.4 °F - 62.6 °F 69% 30.09 in 6.2 mi WNW 4.6 mph - N/A   Mostly Cloudy
11:30 AM 75.2 °F - 60.8 °F 61% 30.09 in 6.2 mi NE 4.6 mph - N/A   Mostly Cloudy
12:00 PM 75.2 °F - 60.8 °F 61% 30.09 in 6.2 mi NW 5.8 mph - N/A   Mostly Cloudy
12:30 PM 77.0 °F - 59.0 °F 54% 30.09 in 6.2 mi NW 4.6 mph - N/A   Scattered Clouds
1:00 PM 79 °F - 59 °F 40% 30.05 in 6 mi North 5.8 mph - -   Partly Cloudy
1:00 PM 78.8 °F - 59.0 °F 51% 30.06 in 6.2 mi North 5.8 mph - N/A   Scattered Clouds
1:30 PM 80.6 °F 81.5 °F 60.8 °F 51% 30.06 in 6.2 mi NE 5.8 mph - N/A   Scattered Clouds
2:00 PM 80.6 °F 81.5 °F 60.8 °F 51% 30.04 in 6.2 mi North 5.8 mph - N/A   Scattered Clouds
2:30 PM 80.6 °F 81.5 °F 60.8 °F 51% 30.04 in 6.2 mi NW 8.1 mph - N/A   Scattered Clouds
3:00 PM 80.6 °F 81.1 °F 59.0 °F 48% 30.04 in 6.2 mi NNW 10.4 mph - N/A   Scattered Clouds
3:30 PM 80.6 °F 81.1 °F 59.0 °F 48% 30.04 in 6.2 mi NNW 9.2 mph - N/A   Scattered Clouds
4:00 PM 79 °F - 58 °F 38% 30.01 in 6 mi NNW 10.4 mph - -   Partly Cloudy
4:00 PM 78.8 °F - 57.2 °F 47% 30.04 in 6.2 mi NNW 10.4 mph - N/A   Scattered Clouds
4:30 PM 78.8 °F - 57.2 °F 47% 30.04 in 6.2 mi NNW 10.4 mph - N/A   Partly Cloudy
5:00 PM 78.8 °F - 57.2 °F 47% 30.04 in 6.2 mi NNW 10.4 mph - N/A   Partly Cloudy
5:30 PM 77.0 °F - 59.0 °F 54% 30.04 in 6.2 mi NNW 12.7 mph - N/A   Partly Cloudy
6:00 PM 75.2 °F - 59.0 °F 57% 30.04 in 6.2 mi NW 11.5 mph - N/A   Partly Cloudy
6:30 PM 75.2 °F - 59.0 °F 57% 30.04 in 6.2 mi NNW 11.5 mph - N/A   Partly Cloudy
7:00 PM 72 °F - 60 °F 56% 30.02 in 6 mi NNW 10.4 mph - -   Scattered Clouds
7:00 PM 71.6 °F - 59.0 °F 64% 30.04 in 6.2 mi NNW 10.4 mph - N/A   Partly Cloudy
7:30 PM 69.8 °F - 60.8 °F 73% 30.04 in 6.2 mi NNW 9.2 mph - N/A   Partly Cloudy
8:00 PM 68.0 °F - 60.8 °F 78% 30.04 in 6.2 mi NNW 8.1 mph - N/A   Partly Cloudy
8:30 PM 68.0 °F - 60.8 °F 78% 30.06 in 6.2 mi NNW 6.9 mph - N/A   Partly Cloudy
9:00 PM 66.2 °F - 60.8 °F 83% 30.06 in 6.2 mi North 3.5 mph - N/A   Partly Cloudy
9:30 PM 68.0 °F - 62.6 °F 83% 30.06 in 6.2 mi North 3.5 mph - N/A   Partly Cloudy
10:00 PM 67 °F - 61 °F 77% 30.06 in 6 mi North 2.3 mph - -   Scattered Clouds
10:00 PM 68.0 °F - 60.8 °F 78% 30.06 in 6.2 mi North 2.3 mph - N/A   Partly Cloudy
10:30 PM 66.2 °F - 60.8 °F 83% 30.06 in 6.2 mi North 2.3 mph - N/A   Partly Cloudy
11:00 PM 64.4 °F - 59.0 °F 83% 30.06 in 6.2 mi NNW 2.3 mph - N/A   Partly Cloudy
11:30 PM 64.4 °F - 59.0 °F 83% 30.06 in 6.2 mi NE 1.2 mph - N/A   Partly Cloudy